Location: Unspecified
(0.0000°N, 0.0000°E)
Time: 09:33:47
(UTC+02:00)

Orbus 21S - Visible Passes

Search period start: 18 October 2017 00:00
Search period end: 28 October 2017 00:00
Orbit: 303 x 32987 km, 24.5° (Epoch: 17 October)

Date Brightness Start Highest point End Pass type
(mag) Time Alt. Az. Time Alt. Az. Time Alt. Az.
18 Oct 6.9 18:25:08 10° W 22:10:50 61° SSW 03:26:28 10° ENE visible
19 Oct 5.6 13:28:22 10° NW 20:42:35 30° ESE 21:52:17 20° E visible
20 Oct 6.7 18:44:43 10° WSW 21:43:50 59° SSW 03:44:39 10° NE visible
21 Oct 5.9 13:46:12 10° WNW 21:03:25 36° ESE 22:10:28 26° E visible
22 Oct 6.5 19:04:36 10° WSW 21:39:30 57° SSW 04:02:40 10° NE visible
23 Oct 6.1 14:04:06 10° WNW 21:24:43 42° ESE 22:28:37 32° E visible
24 Oct 6.4 19:24:51 10° WSW 21:48:28 54° SW 04:20:35 10° NE visible
25 Oct 6.4 14:22:01 10° WNW 21:46:36 48° ESE 22:46:46 39° E visible
26 Oct 6.2 19:45:31 10° WSW 22:02:06 50° SW 04:38:22 10° NE visible
27 Oct 6.7 14:40:00 10° WNW 22:09:14 55° ESE 23:04:54 46° E visible
